When you browse on this site, cookies collect data to enhance your experience and personalize the content and advertising you see.
Visit our Privacy Policy to learn more. By continuing to use the site, you agree to this use of cookies and data.
  • In France
  • List of Countries
  • For 7 days
  • Water Temperature
  • Satellite Maps
  • Weather Map
  • Weather Widgets
  • user-avatar
    Login

    Hourly Weather Zaranj

    Today, 21 November, Wednesday

    Time Temperature Precipitation Wind Pressure Humidity
    00:00 +20°C° 0 mm 3 mps 719 mmHg 29%
    01:00 +20°C° 0 mm 3 mps 718 mmHg 29%
    02:00 +19°C° 0 mm 3 mps 718 mmHg 31%
    03:00 +19°C° 0 mm 3 mps 717 mmHg 32%
    04:00 +18°C° 0 mm 3 mps 718 mmHg 34%
    05:00 +18°C° 0.1 mm 2 mps 718 mmHg 36%
    06:00 +17°C° 0.1 mm 2 mps 718 mmHg 38%
    07:00 +17°C° 0.1 mm 2 mps 718 mmHg 40%
    08:00 +18°C° 0.1 mm 2 mps 718 mmHg 36%
    09:00 +21°C° 0.1 mm 1 mps 718 mmHg 32%
    10:00 +23°C° 0 mm 1 mps 719 mmHg 28%
    11:00 +24°C° 0.1 mm 1 mps 719 mmHg 27%
    12:00 +25°C° 0.1 mm 1 mps 718 mmHg 26%
    13:00 +26°C° 0.1 mm 1 mps 718 mmHg 25%
    14:00 +26°C° 0 mm 2 mps 718 mmHg 25%
    15:00 +26°C° 0 mm 2 mps 718 mmHg 24%
    16:00 +27°C° 0 mm 2 mps 717 mmHg 24%
    17:00 +25°C° 0 mm 2 mps 718 mmHg 25%
    18:00 +24°C° 0 mm 2 mps 718 mmHg 27%
    19:00 +22°C° 0 mm 3 mps 718 mmHg 29%
    20:00 +21°C° 0 mm 3 mps 719 mmHg 30%
    21:00 +21°C° 0 mm 4 mps 719 mmHg 30%
    22:00 +20°C° 0 mm 4 mps 719 mmHg 30%
    23:00 +20°C° 0 mm 4 mps 719 mmHg 33%

    Tomorrow, 22 November, Thursday

    Time Temperature Precipitation Wind Pressure Humidity
    00:00 +19°C° 0 mm 4 mps 719 mmHg 36%
    01:00 +18°C° 0 mm 4 mps 720 mmHg 39%
    02:00 +18°C° 0 mm 4 mps 720 mmHg 42%
    03:00 +17°C° 0 mm 3 mps 720 mmHg 45%
    04:00 +17°C° 0 mm 3 mps 720 mmHg 48%
    05:00 +17°C° 0 mm 3 mps 720 mmHg 50%
    06:00 +16°C° 0 mm 3 mps 721 mmHg 51%
    07:00 +16°C° 0 mm 3 mps 721 mmHg 53%
    08:00 +18°C° 0 mm 2 mps 722 mmHg 49%
    09:00 +19°C° 0 mm 2 mps 722 mmHg 45%
    10:00 +20°C° 0 mm 2 mps 722 mmHg 41%
    11:00 +21°C° 0 mm 2 mps 722 mmHg 37%
    12:00 +23°C° 0 mm 1 mps 721 mmHg 34%
    13:00 +24°C° 0 mm 1 mps 721 mmHg 30%
    14:00 +24°C° 0 mm 1 mps 721 mmHg 29%
    15:00 +24°C° 0 mm 1 mps 720 mmHg 28%
    16:00 +25°C° 0 mm 1 mps 720 mmHg 26%
    17:00 +24°C° 0 mm 1 mps 721 mmHg 28%
    18:00 +23°C° 0 mm 2 mps 721 mmHg 31%
    19:00 +20°C° 0 mm 2 mps 721 mmHg 33%
    20:00 +20°C° 0 mm 2 mps 721 mmHg 33%
    21:00 +20°C° 0 mm 2 mps 722 mmHg 34%
    22:00 +19°C° 0 mm 2 mps 722 mmHg 34%
    23:00 +19°C° 0 mm 2 mps 722 mmHg 35%

    Day after tomorrow, 23 November, Friday

    Time Temperature Precipitation Wind Pressure Humidity
    00:00 +18°C° 0 mm 2 mps 722 mmHg 36%
    01:00 +18°C° 0 mm 2 mps 722 mmHg 36%
    02:00 +18°C° 0 mm 2 mps 722 mmHg 36%
    03:00 +17°C° 0 mm 2 mps 721 mmHg 36%
    04:00 +17°C° 0 mm 2 mps 721 mmHg 36%
    05:00 +17°C° 0 mm 2 mps 722 mmHg 36%
    06:00 +17°C° 0 mm 2 mps 722 mmHg 35%
    07:00 +17°C° 0 mm 3 mps 722 mmHg 35%
    08:00 +19°C° 0 mm 3 mps 723 mmHg 32%
    09:00 +21°C° 0 mm 3 mps 723 mmHg 29%
    10:00 +24°C° 0 mm 3 mps 724 mmHg 27%
    11:00 +25°C° 0 mm 3 mps 723 mmHg 26%
    12:00 +26°C° 0 mm 3 mps 722 mmHg 26%
    13:00 +27°C° 0 mm 4 mps 722 mmHg 25%
    14:00 +27°C° 0 mm 3 mps 721 mmHg 25%
    15:00 +28°C° 0 mm 3 mps 721 mmHg 24%
    16:00 +28°C° 0 mm 2 mps 721 mmHg 24%
    17:00 +26°C° 0 mm 2 mps 721 mmHg 25%
    18:00 +25°C° 0 mm 2 mps 721 mmHg 27%
    19:00 +24°C° 0 mm 2 mps 721 mmHg 28%
    20:00 +24°C° 0 mm 2 mps 721 mmHg 29%
    21:00 +23°C° 0 mm 2 mps 721 mmHg 29%
    22:00 +23°C° 0 mm 2 mps 721 mmHg 30%
    23:00 +21°C° 0 mm 3 mps 721 mmHg 30%

    24 November, Saturday

    Time Temperature Precipitation Wind Pressure Humidity
    00:00 +21°C° 0 mm 3 mps 721 mmHg 31%
    01:00 +21°C° 0 mm 3 mps 721 mmHg 32%
    02:00 +20°C° 0 mm 2 mps 721 mmHg 34%
    03:00 +19°C° 0 mm 2 mps 721 mmHg 35%
    04:00 +19°C° 0 mm 2 mps 720 mmHg 37%
    05:00 +19°C° 0 mm 2 mps 721 mmHg 38%
    06:00 +19°C° 0 mm 2 mps 721 mmHg 38%
    07:00 +18°C° 0 mm 2 mps 722 mmHg 39%
    08:00 +20°C° 0 mm 2 mps 722 mmHg 35%
    09:00 +23°C° 0 mm 2 mps 723 mmHg 31%
    10:00 +25°C° 0 mm 1 mps 723 mmHg 27%
    11:00 +26°C° 0 mm 1 mps 722 mmHg 25%
    12:00 +27°C° 0 mm 1 mps 722 mmHg 23%
    13:00 +28°C° 0 mm 1 mps 721 mmHg 22%
    14:00 +28°C° 0 mm 1 mps 721 mmHg 21%
    15:00 +28°C° 0 mm 1 mps 721 mmHg 21%
    16:00 +28°C° 0 mm 2 mps 721 mmHg 21%
    17:00 +27°C° 0 mm 2 mps 721 mmHg 23%
    18:00 +26°C° 0 mm 3 mps 722 mmHg 25%
    19:00 +25°C° 0 mm 4 mps 723 mmHg 26%
    20:00 +22°C° 0 mm 6 mps 723 mmHg 31%
    21:00 +21°C° 0 mm 8 mps 723 mmHg 36%
    22:00 +18°C° 0 mm 10 mps 723 mmHg 41%
    23:00 +17°C° 0 mm 10 mps 723 mmHg 44%

    25 November, Sunday

    Time Temperature Precipitation Wind Pressure Humidity
    00:00 +16°C° 0 mm 10 mps 723 mmHg 46%
    01:00 +16°C° 0 mm 9 mps 723 mmHg 49%
    02:00 +15°C° 0 mm 9 mps 723 mmHg 51%
    03:00 +15°C° 0 mm 9 mps 723 mmHg 52%
    04:00 +13°C° 0 mm 8 mps 723 mmHg 54%
    05:00 +14°C° 0 mm 7 mps 723 mmHg 55%
    06:00 +14°C° 0 mm 7 mps 723 mmHg 56%
    07:00 +14°C° 0 mm 6 mps 724 mmHg 57%
    08:00 +15°C° 0 mm 6 mps 724 mmHg 52%
    09:00 +16°C° 0 mm 6 mps 724 mmHg 47%
    10:00 +17°C° 0 mm 5 mps 724 mmHg 42%
    11:00 +20°C° 0 mm 5 mps 723 mmHg 39%
    12:00 +21°C° 0 mm 4 mps 722 mmHg 35%
    13:00 +22°C° 0 mm 4 mps 722 mmHg 32%
    14:00 +22°C° 0 mm 3 mps 721 mmHg 31%
    15:00 +22°C° 0 mm 3 mps 721 mmHg 31%
    16:00 +23°C° 0 mm 2 mps 721 mmHg 30%
    17:00 +21°C° 0 mm 2 mps 721 mmHg 33%
    18:00 +20°C° 0 mm 2 mps 721 mmHg 36%
    19:00 +19°C° 0 mm 2 mps 721 mmHg 38%
    20:00 +20°C° 0 mm 1 mps 721 mmHg 40%
    21:00 +19°C° 0 mm 1 mps 721 mmHg 42%
    22:00 +18°C° 0 mm 1 mps 721 mmHg 44%
    23:00 +18°C° 0 mm 1 mps 720 mmHg 45%

    26 November, Monday

    Time Temperature Precipitation Wind Pressure Humidity
    00:00 +18°C° 0 mm 1 mps 720 mmHg 46%
    01:00 +16°C° 0 mm 1 mps 719 mmHg 47%
    02:00 +16°C° 0 mm 1 mps 719 mmHg 47%
    03:00 +16°C° 0 mm 1 mps 719 mmHg 48%
    04:00 +16°C° 0 mm 1 mps 718 mmHg 48%
    05:00 +16°C° 0 mm 1 mps 718 mmHg 48%
    06:00 +16°C° 0 mm 1 mps 718 mmHg 47%
    07:00 +16°C° 0 mm 1 mps 719 mmHg 47%
    08:00 +19°C° 0 mm 1 mps 719 mmHg 43%
    09:00 +19°C° 0 mm 2 mps 719 mmHg 39%
    10:00 +21°C° 0 mm 2 mps 720 mmHg 35%
    11:00 +23°C° 0 mm 2 mps 719 mmHg 33%
    12:00 +24°C° 0 mm 2 mps 718 mmHg 31%
    13:00 +25°C° 0 mm 2 mps 717 mmHg 29%
    14:00 +25°C° 0 mm 2 mps 717 mmHg 29%
    15:00 +25°C° 0 mm 2 mps 717 mmHg 29%
    16:00 +26°C° 0 mm 2 mps 716 mmHg 29%
    17:00 +25°C° 0 mm 2 mps 716 mmHg 31%
    18:00 +24°C° 0 mm 2 mps 717 mmHg 33%
    19:00 +23°C° 0 mm 2 mps 717 mmHg 35%
    20:00 +21°C° 0 mm 2 mps 717 mmHg 36%
    21:00 +21°C° 0 mm 2 mps 717 mmHg 37%
    22:00 +20°C° 0 mm 2 mps 717 mmHg 39%
    23:00 +20°C° 0 mm 2 mps 717 mmHg 39%
    Show more